Zurück zum Katalog

SL-14 DEB

AktivPO
NORAD 28278·DEBRIS·🇷🇺 Russia

Gestartet Sep 28, 1991 von Plesetsk Cosmodrome

Loading…

Nächste Überflüge (nächste 24 Stunden)

TLE

AktuellSource: Space-Track

Epoche: Sep 14, 2026, 12:49 UTC

1 28278U 91068AT  26257.53462014  .00003121  00000-0  98394-2 0  9990
2 28278  82.2804 181.4127 0066427  11.4578 111.0279 13.02735990104373

Verfolge SL-14 DEB in Echtzeit mit AllMySat

Download on the App Store